Pineville, WV

11:59 PM EDT on April 23, 2017 (GMT -0400)
Pineville

Weather History for KI16 - February, 2014

Change the Weather History Date:

Wednesday, February 12, 2014

  Actual Average (KBKW) Record (KBKW)
Temperature  
Mean Temperature 26 °F -  
Max Temperature 34 °F 38 °F 72 °F (1932)
Min Temperature 19 °F 21 °F -8 °F (1936)
Degree Days  
Heating Degree Days 38    
Moisture  
Dew Point 19 °F    
Average Humidity 75    
Maximum Humidity 99    
Minimum Humidity 46    
Precipitation  
Precipitation 0.00 in - - ()
Sea Level Pressure  
Sea Level Pressure 30.18 in    
Wind  
Wind Speed - (North)    
Max Wind Speed -    
Max Gust Speed -    
Visibility 7 miles    
Events Snow    
Averages and records for this station are not official NWS values.
T = Trace of Precipitation, MM = Missing Value Source: NWS Daily Summary

Daily Weather History Graph

Daily Weather History Graph

Search for Another Location

Airport or City:

Trip Planner

Search our weather history database for the weather conditions in past years. The results will help you decide how hot, cold, wet, or windy it might be!

Date:

Astronomy

Feb. 12, 2014 Rise Set
Actual Time 7:19 AM EST 6:02 PM EST
Civil Twilight 6:52 AM EST 6:29 PM EST
Nautical Twilight 6:21 AM EST 7:00 PM EST
Astronomical Twilight 5:50 AM EST 7:30 PM EST
Moon 4:15 PM EST (2/12) 5:34 AM EST (2/12)
Length of Visible Light 11h 37m
Length of Day
10h 43m
Waxing Gibbous, 95% of the Moon is Illuminated
Feb 12
Waxing Gibbous
Feb 14
Full
Feb 22
Last Quarter
Mar 1
New
Mar 8
First Quarter

Hourly Weather History & Observations

Time (EST) Temp. Dew Point Humidity Pressure Visibility Wind Dir Wind Speed Gust Speed Precip Events Conditions
12:15 AM 21.2 °F 17.1 °F 84% 30.32 in 10.0 mi North - - N/A   Clear
12:35 AM 21.4 °F 16.7 °F 82% 30.32 in 10.0 mi North - - N/A   Clear
12:55 AM 21.2 °F 16.7 °F 83% 30.32 in 10.0 mi North - - N/A   Clear
1:15 AM 20.5 °F 16.7 °F 85% 30.32 in 10.0 mi North - - N/A   Clear
1:35 AM 20.1 °F 17.4 °F 89% 30.31 in 10.0 mi North - - N/A   Clear
1:55 AM 19.9 °F 16.7 °F 87% 30.31 in 10.0 mi North - - N/A   Clear
2:15 AM 19.4 °F 16.7 °F 89% 30.31 in 10.0 mi North - - N/A   Clear
2:35 AM 19.9 °F 16.3 °F 86% 30.30 in 10.0 mi North - - N/A   Clear
2:55 AM 19.4 °F 16.7 °F 89% 30.30 in 10.0 mi North - - N/A   Clear
3:15 AM 19.4 °F 16.7 °F 89% 30.30 in 10.0 mi North - - N/A   Clear
3:35 AM 19.6 °F 16.5 °F 88% 30.28 in 10.0 mi North - - N/A   Clear
3:55 AM 19.6 °F 16.3 °F 87% 30.29 in 10.0 mi North - - N/A   Clear
4:15 AM 19.9 °F 16.7 °F 87% 30.29 in 10.0 mi North - - N/A   Clear
4:35 AM 21.7 °F 16.9 °F 82% 30.29 in 10.0 mi North - - N/A   Clear
4:55 AM 23.4 °F 16.7 °F 76% 30.28 in 10.0 mi North - - N/A   Clear
5:15 AM 24.4 °F 16.3 °F 71% 30.28 in 10.0 mi North - - N/A   Clear
5:35 AM 24.8 °F 15.8 °F 69% 30.27 in 10.0 mi North - - N/A   Clear
5:55 AM 25.0 °F 15.8 °F 68% 30.26 in 10.0 mi North - - N/A   Clear
6:15 AM 25.5 °F 15.6 °F 66% 30.26 in 10.0 mi North - - N/A   Clear
6:35 AM 25.3 °F 15.6 °F 67% 30.25 in 10.0 mi North - - N/A   Clear
6:55 AM 25.5 °F 15.6 °F 66% 30.25 in 10.0 mi North - - N/A   Clear
7:15 AM 25.7 °F 15.8 °F 66% 30.24 in 10.0 mi North - - N/A   Clear
7:35 AM 25.7 °F 15.6 °F 66% 30.24 in 10.0 mi North - - N/A   Clear
7:55 AM 26.2 °F 15.4 °F 64% 30.24 in 10.0 mi North - - N/A   Clear
8:15 AM 26.6 °F 14.9 °F 61% 30.24 in 10.0 mi North - - N/A   Clear
8:35 AM 27.1 °F 14.7 °F 60% 30.24 in 10.0 mi North - - N/A   Clear
8:55 AM 27.5 °F 14.7 °F 59% 30.25 in 10.0 mi North - - N/A   Clear
9:15 AM 27.9 °F 14.5 °F 57% 30.26 in 10.0 mi North - - N/A   Clear
9:35 AM 28.2 °F 14.2 °F 56% 30.25 in 10.0 mi North - - N/A   Clear
9:55 AM 28.8 °F 14.2 °F 55% 30.26 in 10.0 mi North - - N/A   Clear
10:15 AM 29.3 °F 14.2 °F 53% 30.25 in 10.0 mi North - - N/A   Clear
10:35 AM 30.0 °F 14.4 °F 52% 30.25 in 10.0 mi North - - N/A   Clear
10:55 AM 30.7 °F 14.5 °F 51% 30.25 in 10.0 mi North - - N/A   Clear
11:15 AM 31.3 °F 14.4 °F 50% 30.23 in 10.0 mi North - - N/A   Scattered Clouds
11:35 AM 32.0 °F 15.1 °F 50% 30.23 in 10.0 mi North - - N/A   Mostly Cloudy
11:55 AM 32.4 °F 15.1 °F 49% 30.21 in 10.0 mi North - - N/A   Overcast
12:15 PM 33.4 °F 15.3 °F 47% 30.21 in 10.0 mi North - - N/A   Mostly Cloudy
12:35 PM 33.4 °F 15.1 °F 47% 30.20 in 10.0 mi North - - N/A   Mostly Cloudy
12:55 PM 33.8 °F 15.4 °F 47% 30.18 in 10.0 mi North - - N/A   Mostly Cloudy
1:15 PM 34.2 °F 15.4 °F 46% 30.16 in 10.0 mi North - - N/A   Overcast
1:35 PM 34.5 °F 16.2 °F 47% 30.15 in 10.0 mi North - - N/A   Overcast
1:55 PM 34.2 °F 15.3 °F 46% 30.14 in 10.0 mi North - - N/A   Overcast
2:15 PM 33.8 °F 15.6 °F 47% 30.13 in 10.0 mi North - - N/A   Overcast
2:35 PM 33.1 °F 15.8 °F 49% 30.13 in 10.0 mi North - - N/A   Overcast
2:55 PM 32.9 °F 16.7 °F 51% 30.13 in 10.0 mi North - - N/A   Overcast
3:15 PM 32.4 °F 17.8 °F 55% 30.12 in 10.0 mi North - - N/A   Overcast
3:35 PM 32.0 °F 19.9 °F 61% 30.12 in 7.0 mi North - - N/A Snow Light Snow
3:55 PM 29.1 °F 25.3 °F 86% 30.12 in 1.0 mi North - - N/A Snow Light Snow
4:15 PM 28.4 °F 26.4 °F 92% 30.12 in 0.8 mi North - - N/A Snow Light Snow
4:35 PM 27.9 °F 26.2 °F 94% 30.11 in 0.5 mi North - - N/A Snow Snow
4:55 PM 27.7 °F 26.4 °F 95% 30.11 in 0.8 mi North - - N/A Snow Light Snow
5:15 PM 27.9 °F 26.4 °F 94% 30.10 in 0.8 mi North - - N/A Snow Light Snow
5:35 PM 27.3 °F 25.5 °F 93% 30.10 in 0.8 mi North - - N/A Snow Light Snow
5:55 PM 26.6 °F 24.8 °F 93% 30.10 in 1.5 mi North - - N/A Snow Light Snow
6:15 PM 26.4 °F 24.8 °F 94% 30.10 in 1.2 mi North - - N/A Snow Light Snow
6:35 PM 26.4 °F 24.8 °F 94% 30.09 in 1.8 mi North - - N/A Snow Light Snow
7:35 PM 26.2 °F 25.2 °F 96% 30.07 in 1.0 mi North - - N/A Snow Snow
7:55 PM 26.2 °F 25.3 °F 96% 30.06 in 0.8 mi North - - N/A Snow Snow
8:15 PM 26.1 °F 25.5 °F 98% 30.06 in 0.8 mi North - - N/A Snow Snow
8:35 PM 26.1 °F 25.5 °F 98% 30.05 in 0.8 mi North - - N/A Snow Snow
8:55 PM 26.1 °F 25.5 °F 98% 30.04 in 0.8 mi North - - N/A Snow Snow
9:15 PM 25.9 °F 25.5 °F 99% 30.04 in 0.8 mi North - - N/A Snow Snow
9:35 PM 25.7 °F 25.2 °F 98% 30.03 in 0.8 mi North - - N/A Snow Snow
9:55 PM 25.5 °F 25.0 °F 98% 30.02 in 0.8 mi North - - N/A Snow Snow
10:15 PM 25.5 °F 24.8 °F 97% 30.01 in 0.8 mi North - - N/A Snow Snow
10:35 PM 25.3 °F 24.8 °F 98% 30.01 in 0.8 mi North - - N/A Snow Snow
10:55 PM 25.3 °F 24.8 °F 98% 29.99 in 1.0 mi North - - N/A Snow Snow
11:15 PM 25.3 °F 24.6 °F 97% 29.98 in 1.0 mi North - - N/A Snow Snow
11:35 PM 25.7 °F 25.3 °F 99% 29.96 in 0.8 mi North - - N/A Snow Snow
11:55 PM 25.7 °F 25.2 °F 98% 29.95 in 1.2 mi North - - N/A Snow Snow